#timestamp,LO_Frequency,Hit,StdDev 
1667084415.8,286046996.5,P
1667084435.6,286046999.1,N
1667084455.4,286046999.3,N
1667084475.3,286046998.7,N
1667084495.1,286046999.1,N
1667084515.9,286046999.0,N
1667084535.7,286046996.5,Y
1667084555.5,286047000.1,P
1667084575.4,286047002.8,P
1667084595.2,286047002.6,N
1667084615.0,286047001.9,N
1667084615.9,286047001.9,N
1667084635.8,286047001.4,N
1667084655.6,286047002.1,N
1667084675.5,286047002.2,N
1667084695.3,286047002.5,N
1667084715.1,286047002.5,N
1667084735.9,286047000.9,N
1667084755.7,286047000.9,N
1667084775.5,286046998.8,N
1667084795.4,286047001.2,N
1667084815.2,286046999.7,N
1667084835.1,286047000.6,N
1667084836.0,286047000.6,N
1667084855.8,286047002.8,N
1667084875.7,286047000.1,N
1667084895.5,286047002.5,N
1667084915.3,286047002.4,N
1667084935.2,286047001.9,N
1667084955.9,286047001.3,N
1667084975.7,286047002.6,N
1667084995.6,286047011.9,Y
1667085015.4,286046999.7,P
1667085035.3,286047000.1,N
1667085055.1,286046996.5,P
1667085056.0,286046996.5,N
1667085075.8,286046998.7,N
1667085095.7,286046999.4,N
1667085115.5,286046998.8,N
1667085135.3,286047001.0,N
1667085155.2,286046999.2,N
1667085175.0,286046999.4,N
1667085175.9,286046999.4,N
1667085195.8,286047000.5,N
1667085215.6,286047000.5,N
1667085235.4,286047002.2,N
1667085255.3,286047002.7,N
1667085275.1,286046999.8,N
1667085295.9,286046999.8,N
1667085315.7,286047000.7,N
1667085335.5,286047002.7,N
1667085355.4,286047002.8,N
1667085375.2,286047002.0,N
1667085395.0,286047001.5,N
1667085395.9,286047001.5,N
1667085415.8,286047000.9,N
1667085435.6,286047000.9,N
1667085455.5,286046999.5,N
1667085475.3,286046998.7,N
1667085495.1,286047000.7,N
1667085515.9,286046999.9,N
1667085535.7,286046999.8,N
1667085555.6,286047002.8,N
1667085575.4,286047000.4,N
1667085595.2,286047000.0,N
1667085615.1,286047000.1,N
1667085616.0,286047000.1,N
1667085635.8,286047002.3,N
1667085655.6,286047002.3,N
1667085675.5,286047001.8,N
1667085695.3,286047001.8,N
1667085715.2,286046999.7,N
1667085735.9,286047000.5,N
1667085755.7,286046999.9,N
1667085775.6,286047000.3,N
1667085795.4,286047002.4,N
1667085815.3,286047004.3,Y
1667085835.1,286047001.9,P
1667085836.0,286047001.9,P
1667085855.8,286047002.0,P
1667085875.7,286047002.8,Y
1667085895.5,286046999.0,P
1667085915.3,286046998.2,N
1667085935.2,286046999.2,N
1667085955.0,286047000.8,N
1667085955.9,286047000.8,N
1667085975.8,286046999.1,N
1667085995.6,286046996.6,N
1667086015.4,286046997.7,N
1667086035.3,286046998.0,N
1667086055.1,286046997.9,N
1667086075.9,286046997.8,N
1667086095.7,286046997.3,N
1667086115.5,286046993.3,Y
1667086135.4,286046995.9,P
1667086155.2,286046996.2,N
1667086175.0,286046995.5,P
1667086175.9,286046995.5,Y
1667086195.8,286047001.0,P
1667086215.6,286047000.8,N
1667086235.5,286046998.1,N
1667086255.3,286046999.4,N
1667086275.1,286046999.2,N
1667086295.9,286046999.1,N
1667086315.7,286046999.1,N
1667086335.6,286047001.0,N
1667086355.4,286047001.9,N
1667086375.2,286047001.9,N
1667086395.1,286047004.0,N
1667086396.0,286047004.0,N
1667086415.8,286047004.7,N
1667086435.7,286047007.2,Y
1667086455.5,286047005.3,P
1667086475.3,286047002.9,N
1667086495.2,286047006.0,P
1667086515.0,286047003.3,N
1667086515.9,286047003.3,N
1667086535.8,286047003.3,N
1667086555.6,286047003.6,N
1667086575.4,286047004.2,N
1667086595.3,286047004.2,N
1667086615.1,286047003.7,N
1667086635.9,286047002.9,N
1667086655.7,286047003.4,N
1667086675.6,286047001.7,N
1667086695.4,286047002.1,N
1667086715.2,286047002.4,N
1667086735.1,286047003.9,Y
1667086736.0,286047003.9,P
1667086755.8,286046999.1,P
1667086775.6,286046994.9,N
1667086795.5,286046996.8,N
1667086815.3,286046997.7,N
1667086835.2,286046998.9,N
1667086855.0,286046998.7,N
1667086855.9,286046998.7,N
1667086875.7,286046999.2,N
1667086895.6,286046994.9,N
1667086915.4,286046998.0,N
1667086935.3,286046996.5,N
1667086955.1,286046999.0,N
1667086956.0,286046999.0,N
1667086975.8,286047001.1,N
1667086995.7,286047000.6,N
1667087015.5,286046999.9,N
1667087035.4,286047002.7,N
1667087055.2,286047001.2,N
1667087075.0,286046998.8,N
1667087075.9,286046998.8,N
1667087095.8,286046998.2,N
1667087115.6,286047000.3,N
1667087135.5,286047000.1,N
1667087155.3,286047000.7,N
1667087175.1,286046999.4,N
1667087195.9,286046998.4,N
1667087215.7,286047000.5,N
1667087235.5,286047000.4,N
1667087255.4,286046998.1,N
1667087275.2,286046998.6,N
1667087295.1,286046999.9,N
1667087296.0,286046999.9,N
1667087315.8,286047002.6,N
1667087335.6,286047000.1,N
1667087355.5,286047000.1,N
1667087375.3,286046999.9,N
1667087395.1,286047000.3,N
1667087415.9,286046999.9,N
1667087435.7,286047002.4,N
1667087455.6,286047001.6,N
1667087475.4,286047002.7,N
1667087495.2,286047000.2,N
1667087515.1,286046998.1,N
1667087516.0,286046998.1,N
1667087535.8,286047000.9,N
1667087555.6,286047000.7,N
1667087575.5,286047000.6,N
1667087595.3,286046999.0,N
1667087615.2,286046998.8,N
1667087635.9,286047000.3,N
1667087655.7,286046998.6,N
1667087675.6,286046998.1,N
1667087695.4,286047000.5,N
1667087715.2,286047000.6,N
1667087735.1,286047000.0,N
1667087736.0,286047000.0,N
1667087755.8,286047002.4,N
1667087775.7,286047001.0,N
1667087795.5,286046999.9,N
1667087815.3,286047000.5,N
1667087835.2,286046999.9,N
1667087855.0,286046998.8,N
1667087855.9,286046998.8,N
1667087875.8,286046998.4,N
1667087895.6,286047000.8,N
1667087915.4,286047002.4,N
1667087935.3,286047001.6,N
1667087955.1,286047003.7,N
1667087975.8,286047003.9,N
1667087995.7,286047003.2,N
